User: anonymous   Login
Location: Unspecified
(0.0000°N, 0.0000°E)
Time: 06:44:59
(UTC+02:00)
Language:

Sapphire - Orbit

View from above orbital plane
View from above orbital plane
View from above satellite
View from above satellite

Ground track
Ground track

The orbit data is extracted from the following two-line orbital elements,

1 26932U 01043D   16146.87692041 -.00000041  00000-0  16261-4 0  9991
2 26932  67.0571  12.2687 0008742 259.6499 100.3616 14.30212449764982
Epoch (UTC): 25 May 2016 21:02:45
Eccentricity: 0.0008742
inclination: 67.0571°
perigee height: 785 km
apogee height: 797 km
right ascension of ascending node: 12.2687°
argument of perigee: 259.6499°
revolutions per day: 14.30212449
mean anomaly at epoch: 100.3616°
orbit number at epoch: 76498

The dashed part of the orbit path shows where the satellite is in the earth's shadow,  

DLR